Regional Weather Roundup
Issued by NWS

Home | Current Version | Previous Version | Graphics & Text | Print | Product List | Glossary On
Versions: 1 2 3 4 5 6 7 8 9 10 11 12 13 14 15 16 17 18 19 20 21 22 23 24 25 26 27 28 29 30 31 32 33 34 35 36 37 38 39 40 41 42 43 44 45 46 47 48 49 50
000
ASUS43 KDTX 010510
RWRMI
MICHIGAN HOURLY REGIONAL WEATHER ROUNDUP
NATIONAL WEATHER SERVICE DETROIT/PONTIAC MI
100 AM EDT FRI AUG 01 2014

NOTE: "FAIR" INDICATES FEW OR NO CLOUDS BELOW 12,000 FEET WITH NO
SIGNIFICANT WEATHER AND/OR OBSTRUCTION TO VISIBILITY.

MIZ047>049-052>055-059>063-066>070-074>076-081>083-010600-
SOUTHEAST LOWER MICHIGAN

CITY           SKY/WX    TMP DP  RH WIND       PRES   REMARKS
ADRIAN         CLEAR     61  57  87 CALM      30.08S
ALMA           MOCLDY    60  58  93 SW3       30.04R
ANN ARBOR      CLEAR     57  54  89 CALM      30.07R FOG
BAD AXE        CLEAR     60  58  94 CALM      30.04R
CARO           PTCLDY    60  60 100 CALM      30.03S FOG
DETROIT CITY   CLEAR     71  59  65 W3        30.06R
DETROIT        PTCLDY    65  59  81 S6        30.07R
FLINT          MOCLDY    61  57  87 CALM      30.05R
GROSSE ILE     CLEAR     68  61  77 CALM      30.05S
HILLSDALE      CLEAR     59  58  96 CALM      30.09R
HOWELL         CLEAR     63  59  86 S6        30.06S

CITY           SKY/WX    TMP DP  RH WIND       PRES   REMARKS
JACKSON        CLEAR     62  57  83 SW5       30.07R
LAMBERTVILLE   PTCLDY    63  59  88 CALM      30.08S FOG
LANSING        PTCLDY    64  59  83 S5        30.05S
LAPEER         MOCLDY    56  55  96 CALM      30.05S FOG
MASON          CLEAR     60  58  91 CALM      30.06S
MONROE         CLEAR     63  59  88 CALM      30.05S
MT. CLEMENS    CLEAR     62  58  87 NW2       30.05R
PONTIAC        CLEAR     64  58  80 CALM      30.05S
PORT HOPE        N/A     64  57  78 SW6       30.01R
PORT HURON     FOG       55  55 100 CALM      30.05S VSB 1/4
TRI CITIES     PTCLDY    66  60  81 CALM      30.03S
TROY           CLEAR     67  59  76 SW5       30.07S
SAGINAW HB     CLEAR     63  61  94 CALM      30.03S
$$
MIZ043>046-050>051-056>058-064>065-071>073-077>080-010600-
SOUTHWEST LOWER MICHIGAN

CITY           SKY/WX    TMP DP  RH WIND       PRES   REMARKS
BATTLE CREEK   CLEAR     66  58  75 S7        30.06S
BENTON HARBOR  PTCLDY    62  60  93 CALM      30.05R
BIG RAPIDS     MOCLDY    60  60 100 CALM      30.03R
COLDWATER      PTCLDY    66  60  81 CALM      30.08R
FREMONT        RAIN      63  59  87 SW10      30.02F
HOLLAND        CLEAR     63  57  81 CALM      30.04R
GRAND RAPIDS   PTCLDY    65  61  87 S7        30.04R
IONIA          MOCLDY    66  59  77 S6        30.03S
KALAMAZOO      CLEAR     63  58  83 SW6       30.06R
LUDINGTON      PTCLDY    62  58  85 CALM      30.01R
MARSHALL       CLEAR     63  58  83 S5        30.06S
MOUNT PLEASANT MOCLDY    65  60  85 CALM      30.02S
MUSKEGON       PTCLDY    65  57  75 CALM      30.04R
SOUTH HAVEN    CLEAR     63  62  95 CALM      30.05R
$$
MIZ016>042-010600-
NORTHERN LOWER MICHIGAN

CITY           SKY/WX    TMP DP  RH WIND       PRES   REMARKS
ALPENA         MOCLDY    58  56  93 CALM      30.01S
BEAVER ISLAND    N/A     56  56 100 CALM      29.99S FOG
BELLAIRE       PTCLDY    55  53  92 CALM      30.00R
CADILLAC       CLEAR     53  53  99 CALM      30.03R
CHARLEVOIX     PTCLDY    60  59  99 S3        30.02S FOG
FRANKFORT      CLEAR     62  56  82 CALM      30.00R
GAYLORD        CLEAR     56  52  86 CALM      30.02S
GRAYLING       CLEAR     54  54  99 CALM      30.03R
HARBOR SPRINGS CLEAR     60  57  89 CALM      30.00R
HOUGHTON LAKE  CLEAR     53  51  93 CALM      30.03R
MANISTEE       CLEAR     57  54  88 CALM      30.01R
OSCODA         CLEAR     58  55  92 CALM      30.00S
PELLSTON       PTCLDY    55  54  96 S3        30.00R
ROGERS CITY    PTCLDY    57  57 100 CALM      30.02R
TRAVERSE CITY  PTCLDY    63  57  81 CALM      29.98R
$$
MIZ007>008-015-010600-
EASTERN UPPER MICHIGAN

CITY           SKY/WX    TMP DP  RH WIND       PRES   REMARKS
KINROSS        CLEAR     54  54 100 CALM      29.99S
MACKINAC ISLAN CLEAR     57  57  99 SW5       29.99S
NEWBERRY       CLEAR     47  45  93 CALM      29.99R
S. S. MARIE    CLEAR     51  49  92 CALM      29.98S
MUNISING         N/A     54  49  83 S7        29.97S
$$
MIZ004>006-011>014-085-010600-
CENTRAL UPPER MICHIGAN

CITY           SKY/WX    TMP DP  RH WIND       PRES   REMARKS
MANISTIQUE     CLEAR     50  49  97 CALM      29.98S
ESCANABA       CLEAR     55  50  82 CALM      29.98S
MENOMINEE      CLEAR     63  55  77 E3        29.98R
SAWYER-GWINN   CLEAR     52  49  90 CALM      29.99S
$$
MIZ001>003-009>011-084-010600-
WESTERN UPPER MICHIGAN

CITY           SKY/WX    TMP DP  RH WIND       PRES   REMARKS
IRON MOUNTAIN  PTCLDY    55  51  86 CALM      29.99R
HOUGHTON       CLEAR     57  49  74 N10       29.97R
COPPER HARBOR    N/A     57  49  74 W3        29.98S
$$

ABBREVIATIONS USED IN REMARKS
   TC - TEMPERATURE IN CELSIUS
  WCI - WIND CHILL INDEX
   HX - HEAT INDEX
  VSB - VISIBILITY




USA.gov is the U.S. government's official web portal to all federal, state and local government web resources and services.